GFSSGP_250_spd_249.txt.gz
Wind_Speed
23 18 15 15 15 14 12 16 15 14 13 9 8 14 16 13 13 15 17 21 23 24 27 33 41 43 50 60 68 65 63 58 58 56 53 50 50 49 51 50 51 51 47 43 41 40 39 37 35
18 18 15 12 10 12 13 15 15 14 15 14 9 2 13 15 10 13 19 22 25 26 28 29 23 30 41 44 52 61 66 62 60 57 56 53 54 54 54 53 53 52 50 45 41 41 40 40 39
21 18 16 16 18 19 16 16 17 17 19 14 11 13 9 18 19 16 16 21 30 33 36 36 27 28 32 42 43 49 56 57 61 60 56 55 56 57 58 56 53 53 51 48 44 43 42 42 42
18 19 17 17 19 20 17 18 18 16 15 14 12 19 26 15 19 21 22 23 28 29 34 42 44 29 22 24 35 43 53 59 58 57 53 48 51 47 56 59 59 57 54 50 48 47 46 44 42
14 18 17 17 21 21 20 17 17 17 18 24 28 26 27 31 30 35 38 36 28 21 28 34 38 32 27 20 30 34 44 49 56 64 58 50 49 48 47 50 52 54 54 54 54 54 53 47 46
17 14 14 18 20 17 15 13 14 15 22 27 30 33 32 34 36 37 45 41 33 35 36 25 31 33 27 21 22 31 28 37 49 58 54 54 53 50 50 50 50 51 55 53 53 51 53 53 49
17 12 13 16 22 19 14 15 18 23 31 28 29 34 37 40 43 43 41 41 44 40 38 38 47 35 24 15 19 27 32 35 43 53 50 53 56 54 55 56 52 51 51 54 55 53 51 52 50
15 13 13 18 17 15 17 18 24 27 32 33 34 37 39 43 45 45 47 48 48 49 53 47 48 50 33 20 15 23 26 31 34 46 52 51 55 57 54 56 57 56 55 58 60 58 54 56 57
12 11 17 16 17 19 22 22 24 26 29 33 35 36 40 42 44 47 51 52 54 57 60 57 51 47 41 37 22 22 22 29 35 46 54 51 57 61 61 60 60 57 60 58 57 66 65 58 53
9 12 18 19 19 20 20 22 24 28 29 33 34 39 42 44 44 47 52 54 58 59 60 58 57 51 40 37 34 26 28 30 38 46 55 56 56 65 66 63 65 67 65 62 58 57 63 65 60
15 19 17 16 20 23 24 24 25 27 30 36 38 40 42 46 46 46 48 54 54 58 59 58 56 54 47 40 41 25 24 25 41 48 52 57 58 64 66 65 64 65 70 68 66 67 64 63 66
12 14 16 16 25 24 24 30 32 34 37 38 37 41 43 45 44 45 47 50 46 57 61 58 58 54 56 56 51 50 44 39 27 50 59 62 60 62 63 66 73 71 73 68 64 62 60 69 73
12 14 20 22 24 27 26 29 32 35 39 41 42 43 43 44 42 43 47 45 53 60 61 63 63 64 63 65 59 57 54 49 41 32 52 66 71 70 70 70 70 76 80 78 74 75 67 63 66
17 18 20 24 25 27 29 31 36 37 41 41 43 46 47 43 43 45 44 50 58 62 64 65 65 66 67 64 67 61 55 45 39 43 33 56 65 73 79 77 77 77 80 80 75 75 71 69 63
23 23 28 24 28 28 29 34 39 43 45 48 49 49 45 45 49 47 50 57 59 62 66 70 72 70 72 69 62 64 59 52 44 40 37 37 65 70 72 75 80 81 82 81 80 79 74 72 72
26 31 30 31 30 33 36 41 43 48 53 53 52 47 46 47 46 50 55 60 67 71 72 72 76 78 76 70 74 72 66 57 45 43 43 40 50 73 75 74 75 77 79 79 81 80 80 75 73
34 39 37 41 43 46 47 45 46 54 53 50 44 46 48 50 54 57 57 60 64 68 72 75 76 74 76 78 72 70 63 58 51 51 46 46 43 60 79 83 81 84 83 86 82 82 83 84 83
41 42 44 40 41 44 47 48 49 50 45 44 45 47 50 53 54 57 61 63 65 69 71 72 74 76 80 78 84 81 68 70 62 55 48 49 43 52 66 83 90 90 87 87 89 88 89 90 90
47 46 43 46 49 49 50 50 47 47 46 47 48 50 53 55 55 59 64 67 71 74 77 77 82 82 84 86 90 86 76 71 58 56 52 51 46 49 59 72 85 88 94 98 96 97 97 95 90
43 45 45 47 51 52 44 43 44 43 44 46 51 57 60 61 63 72 75 80 85 83 85 87 86 86 89 86 85 88 86 78 65 63 58 51 48 46 55 64 75 86 88 89 90 89 90 91 89
42 45 47 46 43 41 40 34 37 50 52 55 62 67 66 69 71 75 79 84 84 85 82 84 86 87 88 88 89 87 85 81 77 62 59 55 49 46 50 61 70 77 84 91 88 88 88 83 80
35 38 40 37 35 37 42 39 48 55 57 61 66 67 70 76 80 84 85 87 88 88 87 89 93 94 93 90 91 86 81 78 73 67 64 57 48 45 48 57 63 68 74 79 81 84 86 83 84
34 38 35 39 43 49 50 51 51 58 65 68 70 74 77 77 80 80 82 83 88 87 89 91 93 97 94 92 91 89 89 81 73 73 58 56 46 47 46 50 57 63 70 69 71 72 71 75 72
41 42 44 52 54 57 61 62 60 65 68 72 73 75 76 79 79 81 81 87 89 91 97 99 96 94 90 90 91 91 91 86 77 78 63 55 45 44 45 49 54 62 65 72 74 73 73 70 70
50 53 61 59 61 62 60 60 62 69 71 69 74 78 80 84 85 86 87 95 98 101 101 102 104 104 100 98 95 92 96 90 81 79 60 49 44 44 44 50 55 61 66 71 71 71 74 72 71
55 60 61 60 59 62 60 60 63 65 68 74 79 80 83 84 83 87 93 95 97 98 102 106 111 107 105 103 98 95 92 91 82 68 59 45 43 43 45 51 56 60 64 69 71 74 76 74 73
57 58 63 66 67 65 66 65 61 66 75 81 86 86 85 87 89 94 95 100 102 105 112 114 114 117 114 110 100 92 94 86 81 70 58 46 42 43 45 52 55 59 62 66 69 72 75 76 75
70 69 72 76 79 75 68 70 73 79 85 87 90 95 96 94 98 99 104 108 111 115 118 119 120 127 128 112 100 96 94 87 78 65 50 49 43 44 46 52 57 59 62 65 68 71 76 76 75
71 75 78 81 81 80 88 76 80 90 92 93 98 99 101 102 105 105 112 114 116 119 123 121 124 133 120 109 102 98 95 84 73 59 53 49 44 45 47 51 57 61 62 65 67 69 71 72 72
72 74 77 81 88 92 94 89 89 93 97 103 104 107 107 108 110 110 115 115 119 120 122 128 131 128 110 106 102 102 86 77 64 55 52 48 44 45 48 51 56 61 63 64 66 67 68 69 68

GFSSGP_250_spd_252.txt.gz
Wind_Speed
19 18 17 18 17 15 14 18 20 21 15 13 16 17 19 20 14 15 18 20 22 23 24 22 25 28 27 33 38 44 54 60 58 60 59 54 52 51 47 45 45 46 48 50 50 47 43 41 38
23 18 18 18 19 15 18 19 22 18 18 16 17 19 20 18 20 10 10 23 24 21 24 25 28 27 24 26 33 42 45 50 58 60 57 57 58 54 51 49 48 50 50 49 49 49 48 45 40
23 17 18 19 16 16 18 17 19 16 13 19 28 22 15 24 34 30 27 32 38 23 19 26 27 26 24 22 24 31 34 43 50 59 62 57 54 48 53 54 51 52 52 52 53 51 48 42 44
18 17 18 19 17 16 16 20 20 21 30 25 23 24 25 25 29 33 34 36 41 36 22 34 30 28 24 18 17 25 27 36 42 53 61 59 53 49 49 51 52 53 55 53 52 51 49 49 46
20 17 16 20 21 21 20 21 22 20 22 26 23 22 24 28 31 32 35 35 37 40 41 40 38 31 25 22 16 20 22 25 36 45 52 58 51 56 51 52 53 52 48 48 48 51 53 53 51
20 16 16 17 19 20 19 20 20 23 22 22 24 26 30 31 33 38 36 36 41 42 41 44 42 40 34 26 18 18 19 23 29 36 47 47 47 50 58 58 59 54 54 49 50 48 45 51 52
17 15 17 17 18 18 17 17 21 22 22 23 28 29 33 36 35 40 40 40 39 45 44 44 43 41 39 39 29 20 16 20 24 29 39 48 44 45 55 59 60 63 56 53 55 56 56 48 53
18 18 17 17 16 19 18 19 20 20 24 27 29 33 36 37 41 40 40 42 41 40 45 50 42 40 41 38 35 25 24 21 24 31 32 43 50 46 44 56 62 61 62 59 53 55 56 57 57
13 14 16 15 18 20 20 20 23 24 28 31 31 31 33 36 38 40 41 42 40 42 49 50 50 41 45 45 40 33 26 21 21 28 30 38 50 52 48 45 49 64 62 59 64 54 57 58 57
8 11 10 7 17 18 17 20 23 25 27 30 33 39 39 39 41 40 41 41 37 44 55 56 57 53 51 51 50 34 37 26 16 16 31 39 46 51 56 50 56 62 64 64 60 57 61 60 61
15 13 11 12 14 20 21 18 23 27 30 33 37 40 44 42 39 34 40 42 37 46 56 61 56 57 56 53 51 45 46 32 24 19 12 30 48 53 58 65 59 64 66 67 65 68 71 68 65
17 14 14 14 19 19 20 20 22 28 30 34 40 43 45 45 37 34 40 40 42 50 55 61 63 64 64 64 59 48 50 47 29 24 24 23 24 50 62 67 70 72 70 73 73 74 71 72 70
22 21 20 17 21 21 22 21 24 25 29 35 43 41 44 41 32 38 43 44 48 53 59 63 64 66 72 73 54 68 61 48 30 28 28 34 36 35 54 67 69 76 74 72 75 76 77 75 74
26 25 24 21 27 20 23 26 30 36 36 38 43 42 42 34 39 39 40 46 48 54 58 60 66 69 67 67 67 67 58 59 58 40 39 29 32 47 56 59 68 76 77 78 76 77 81 82 77
27 30 30 27 28 26 29 34 36 35 38 42 43 43 37 41 44 42 42 46 51 56 62 63 66 66 73 73 75 75 67 44 48 46 43 30 30 34 43 47 61 75 80 84 85 86 84 81 84
31 32 35 33 35 38 38 33 40 42 41 41 40 40 38 40 42 42 46 49 56 62 65 69 72 77 77 77 76 78 76 75 78 53 42 38 34 31 37 43 49 64 77 82 86 91 93 92 89
34 35 39 40 41 41 37 41 46 45 44 40 38 39 40 44 49 50 54 60 62 67 70 72 74 75 77 75 80 84 84 79 76 73 65 51 43 39 39 44 44 58 73 80 83 86 86 86 83
36 38 41 45 48 45 40 40 43 44 39 39 34 37 41 47 54 55 62 63 66 69 74 73 72 75 78 82 83 83 78 81 82 84 70 64 51 40 45 45 46 50 72 84 86 87 86 89 86
35 35 39 40 45 40 40 47 46 39 36 30 40 44 51 55 61 65 60 60 61 69 72 74 75 79 82 81 81 79 81 81 79 78 80 69 52 52 47 46 50 46 60 83 96 97 93 93 92
35 35 36 39 38 38 42 44 38 33 34 40 45 54 59 62 60 58 60 62 65 73 72 72 74 77 75 76 80 86 87 85 84 86 83 81 70 59 50 53 56 51 52 65 86 98 102 101 101
36 35 34 35 32 36 28 32 34 43 50 54 57 58 60 62 60 60 60 64 67 72 70 71 75 80 84 88 87 89 92 92 91 92 87 80 72 64 56 52 50 54 51 59 70 83 90 91 97
37 38 38 35 34 33 39 40 47 53 54 54 55 57 59 61 60 59 62 69 75 76 78 83 83 89 89 93 94 95 98 99 100 102 97 79 73 62 60 55 50 54 54 56 63 73 80 82 85
38 37 37 39 40 39 40 46 52 52 54 54 57 56 60 61 61 65 73 78 79 84 85 89 90 93 93 94 98 99 101 102 105 108 98 79 72 67 62 56 52 54 55 56 59 65 73 75 74
42 41 45 50 43 46 55 52 53 55 55 57 60 61 62 61 65 73 82 80 80 83 90 92 94 100 96 96 101 105 105 109 113 112 99 79 73 68 59 56 52 55 56 55 57 58 66 68 70
45 51 52 51 51 54 54 48 50 56 61 63 63 64 67 69 74 77 82 82 85 92 96 100 103 104 103 103 105 107 112 113 117 119 96 80 73 68 63 61 54 55 56 57 59 57 61 66 65
52 51 56 53 53 55 56 56 58 60 65 69 74 72 77 79 84 83 81 86 93 98 100 104 105 105 106 108 112 112 115 120 123 116 88 80 72 71 58 58 55 54 56 58 59 58 61 64 66
62 64 65 63 63 62 61 63 63 67 69 70 72 79 83 89 89 87 87 94 94 99 103 107 107 108 109 113 116 118 120 128 117 110 83 79 72 72 61 55 53 53 57 59 59 60 62 64 66
66 67 71 75 78 75 70 70 70 72 73 75 80 84 88 89 89 90 92 95 100 104 105 108 110 113 116 119 122 127 128 124 122 101 84 80 75 68 60 55 54 53 56 59 59 60 63 65 68
64 70 77 80 83 87 81 74 77 84 86 88 90 92 92 93 96 97 99 102 105 106 108 113 117 122 123 126 130 132 130 130 109 94 82 78 73 61 57 53 52 53 55 58 59 60 62 62 66
69 72 77 82 84 84 82 79 86 88 90 95 97 99 98 101 101 104 104 106 107 109 113 118 120 124 127 130 134 132 133 122 98 88 78 75 64 55 53 52 51 51 52 56 58 60 61 61 63

GFSSGP_250_spd_258.txt.gz
Wind_Speed
22 20 19 19 21 22 21 19 21 23 22 21 21 21 21 18 24 23 21 18 14 12 18 19 17 13 15 21 29 35 37 43 50 54 55 54 57 58 58 58 56 50 49 47 44 41 41 40 40
21 17 16 20 21 20 22 19 14 20 28 26 24 22 23 28 31 30 28 25 24 24 25 26 29 25 24 21 19 22 31 37 41 43 45 48 52 60 59 59 59 55 50 49 47 46 43 43 43
17 17 14 21 20 20 17 19 21 22 19 23 25 24 19 20 25 27 25 25 26 25 33 27 28 28 27 23 17 16 17 28 34 37 34 34 42 51 61 60 60 57 53 51 52 49 47 45 46
16 17 17 18 18 17 21 19 16 17 24 24 23 25 22 21 19 15 20 22 21 31 31 33 32 27 26 23 21 17 13 16 25 35 35 33 38 40 49 62 59 57 55 54 52 52 51 49 51
18 17 13 10 15 18 15 14 16 17 18 18 19 21 21 19 20 11 10 19 23 22 33 35 37 31 24 20 25 23 19 13 13 20 24 27 32 38 39 52 60 56 55 56 56 56 53 54 56
17 19 19 17 18 20 17 16 15 14 19 22 19 20 20 18 14 21 15 19 16 19 29 30 31 32 29 18 27 26 21 22 12 9 14 20 29 32 37 49 51 53 55 57 57 56 56 57 59
11 14 15 18 17 17 16 15 16 18 18 22 20 22 23 21 20 14 23 24 25 31 32 35 37 32 26 14 24 25 18 22 23 20 19 18 18 30 34 40 48 44 51 59 59 58 57 58 60
6 5 8 10 9 7 8 8 10 15 18 21 24 26 27 20 24 21 22 28 30 33 33 38 42 37 22 16 23 26 16 16 17 22 22 22 22 20 28 33 45 46 41 52 59 59 53 58 60
7 8 6 5 6 6 7 7 4 7 14 22 24 26 28 20 21 21 21 27 33 31 33 39 46 39 34 26 31 20 17 12 14 21 25 25 24 27 22 28 34 45 47 54 57 57 52 54 61
9 8 9 10 9 8 7 8 9 11 16 20 23 23 26 23 20 21 23 27 31 29 36 40 46 39 40 45 31 22 19 28 27 30 19 16 21 22 22 25 28 35 51 53 56 63 63 62 61
11 10 11 13 13 14 14 14 10 12 15 21 22 27 26 24 24 25 21 27 33 30 38 41 39 43 45 51 36 42 28 25 32 35 28 15 15 20 24 28 30 35 43 56 64 65 64 66 66
16 13 15 14 16 17 18 18 17 16 17 23 25 28 27 28 24 28 23 26 31 36 39 36 41 44 47 51 53 37 47 45 20 41 37 45 26 27 21 23 34 41 44 50 61 67 74 72 69
19 20 20 20 20 19 19 22 20 22 22 24 26 28 29 29 23 26 25 32 34 40 38 40 42 45 48 49 51 54 51 52 52 53 55 57 55 32 25 35 33 31 43 55 61 66 69 74 79
20 18 22 23 23 23 21 24 28 26 25 28 29 25 31 31 25 23 28 32 36 36 41 40 41 47 50 51 51 53 51 54 61 61 63 66 66 63 61 53 61 38 43 37 60 69 72 73 76
23 19 20 22 25 24 22 22 23 27 31 33 29 28 37 28 22 27 33 39 41 44 41 41 41 48 49 48 53 52 53 54 61 63 64 67 68 70 71 71 71 72 55 50 41 52 73 76 77
22 23 23 22 24 25 25 24 26 29 31 33 30 32 32 23 23 34 40 46 46 45 46 41 46 49 50 52 54 58 54 59 63 69 67 69 74 74 74 80 81 80 68 65 53 49 54 73 79
21 24 25 23 24 25 26 26 27 31 28 27 31 33 27 21 27 39 42 41 42 46 47 48 48 53 55 55 59 60 57 59 68 72 74 76 78 80 81 80 82 80 75 77 76 70 59 59 74
24 26 27 25 26 29 30 28 25 31 31 30 31 28 25 32 38 39 40 41 43 46 49 50 55 58 59 59 61 65 61 65 70 74 77 81 80 80 81 84 84 85 86 81 80 81 69 57 67
21 24 25 26 28 26 28 29 26 28 31 30 33 27 36 32 36 39 41 41 45 47 50 53 56 58 58 63 66 68 66 70 75 78 77 77 81 81 84 88 89 91 90 89 87 85 72 60 61
25 24 25 26 26 28 29 31 27 28 27 32 31 32 36 38 41 46 46 44 49 53 55 59 60 63 65 68 70 70 71 74 76 77 80 84 85 89 95 94 100 97 100 92 90 88 73 66 57
31 29 30 28 30 29 31 34 33 32 33 35 37 41 42 44 45 48 50 52 55 58 61 64 65 65 69 73 70 70 72 73 78 82 85 86 92 96 99 100 102 102 104 98 90 88 74 64 57
39 35 34 34 32 31 35 33 41 39 41 39 39 41 45 49 51 53 54 56 60 62 65 66 67 68 72 70 71 75 75 78 83 86 88 92 97 102 101 103 111 108 102 99 95 89 73 61 58
45 44 37 38 39 38 39 35 45 44 46 46 47 47 50 53 56 58 61 64 65 67 66 68 68 70 67 74 77 76 80 86 88 89 94 97 99 99 107 112 116 111 108 104 97 88 72 58 57
45 48 48 42 41 35 42 42 42 51 52 51 52 55 57 59 60 62 64 67 69 68 69 69 71 70 74 77 77 81 87 89 91 97 98 99 101 106 112 116 115 122 111 104 92 85 70 57 57
48 47 46 46 49 47 44 43 44 52 54 57 56 57 59 59 59 63 65 68 67 66 69 72 73 74 79 81 84 87 90 91 98 99 101 103 109 112 117 116 118 110 106 101 89 79 66 56 57
53 53 55 53 50 49 49 46 45 53 57 57 58 60 60 61 66 68 67 66 65 71 74 78 81 80 84 88 91 92 94 96 101 103 105 108 113 117 119 123 120 112 105 94 85 69 59 54 57
56 58 61 61 55 50 49 47 48 54 59 63 67 67 65 68 71 71 72 70 72 77 80 82 83 88 91 91 92 95 96 97 101 108 112 115 119 123 125 127 122 108 100 89 75 63 54 52 56
62 62 64 66 66 62 56 57 60 59 61 66 70 72 73 75 77 79 73 74 78 80 83 86 90 91 92 94 98 98 100 105 107 111 116 119 123 128 126 125 116 107 96 82 73 59 50 51 54
64 64 67 71 69 70 65 62 63 67 69 70 72 72 73 75 77 78 78 82 84 85 88 91 94 96 95 98 99 103 106 110 113 119 122 127 130 131 126 126 109 98 87 78 65 54 49 51 53
71 70 75 75 75 75 78 60 64 72 75 76 77 79 82 86 86 81 83 87 89 92 94 94 96 100 99 102 105 107 111 116 119 126 131 131 137 134 125 117 103 87 79 67 56 52 48 49 51

GFSSGP_250_spd_264.txt.gz
Wind_Speed
20 22 22 24 27 29 30 31 29 25 23 23 20 18 18 17 20 24 14 10 8 5 3 7 14 23 25 27 29 29 28 24 29 36 34 41 52 49 40 47 56 59 61 60 58 59 55 52 50
14 18 20 23 24 23 28 30 25 22 22 20 21 21 19 21 23 16 15 9 4 6 7 11 16 20 23 24 23 26 23 24 23 23 23 34 41 42 37 37 40 46 51 54 57 60 59 57 53
8 12 16 23 23 21 21 25 25 23 18 16 15 16 18 21 13 16 13 13 10 14 15 14 16 14 20 25 28 25 25 22 22 25 22 18 21 32 35 32 33 35 42 52 58 60 60 58 57
7 9 10 20 23 22 24 20 19 16 15 15 14 12 10 11 8 9 4 13 17 23 23 26 22 13 13 19 20 16 21 21 23 24 20 17 16 15 24 31 31 34 39 42 51 57 59 60 56
9 6 8 12 17 17 17 13 15 16 15 13 11 8 9 7 7 4 6 7 15 25 25 26 21 14 10 13 15 16 15 19 19 17 20 18 17 14 13 19 26 31 31 33 36 46 53 58 57
11 13 12 8 9 11 12 10 16 16 14 13 12 7 5 2 3 7 16 21 20 21 27 24 20 21 16 11 13 15 23 21 22 23 19 17 15 11 8 10 15 22 30 34 35 33 36 50 55
6 12 7 10 11 10 9 9 9 9 8 9 12 11 10 4 5 1 10 15 19 19 26 21 22 20 17 19 18 20 25 33 32 27 32 24 28 26 16 8 11 14 18 21 30 34 35 38 43
8 13 14 10 1 5 2 1 3 3 4 9 9 12 14 9 8 11 7 11 14 19 19 17 21 23 24 18 19 14 23 29 28 26 30 24 26 21 25 25 26 15 15 17 20 25 28 34 42
9 12 14 16 12 7 6 5 6 4 4 8 11 12 14 14 14 12 10 9 10 16 14 17 19 21 22 24 28 29 20 25 31 26 25 29 19 16 22 20 15 23 14 18 19 19 23 30 38
8 8 11 13 15 15 14 13 12 12 10 11 11 16 16 15 15 16 11 10 10 13 13 14 22 25 23 25 31 30 34 10 25 24 10 22 31 21 17 20 23 14 15 19 15 20 16 24 29
10 11 10 13 12 13 15 14 14 14 13 14 12 16 18 16 16 16 16 11 11 14 22 19 22 25 24 25 29 30 31 31 33 25 26 13 29 32 33 28 28 29 29 16 20 30 18 20 24
11 12 12 13 15 16 17 17 17 16 16 16 18 20 22 19 18 19 17 14 13 13 19 19 18 21 25 25 29 30 32 32 33 34 37 41 34 40 40 40 32 41 41 34 26 33 38 22 29
14 13 12 13 14 14 15 17 16 18 18 19 18 18 20 21 20 18 15 13 10 13 18 15 18 20 24 26 29 32 30 32 35 36 36 40 42 42 40 44 46 47 47 48 46 44 44 31 28
17 13 12 11 12 15 15 17 17 20 22 22 23 22 22 21 19 13 14 15 15 15 16 21 23 25 28 28 30 31 33 32 33 36 38 42 44 45 45 46 48 48 49 51 48 52 51 53 50
19 17 14 12 12 12 13 15 16 16 19 20 21 22 21 21 20 15 15 12 14 18 22 27 31 31 32 32 34 35 35 35 36 36 37 44 46 47 47 51 54 53 51 55 56 58 59 59 63
20 19 19 18 15 13 12 14 15 16 17 19 18 18 19 18 11 12 13 15 17 23 27 29 32 33 36 38 40 39 37 37 37 40 43 47 48 47 53 53 55 54 55 57 58 61 64 66 69
21 20 22 23 21 21 19 16 17 18 17 19 16 18 18 17 17 22 24 22 20 26 32 35 35 37 40 41 44 43 40 38 40 41 47 50 49 52 58 56 54 58 58 60 63 66 69 71 74
25 25 24 23 25 25 23 23 23 23 23 21 21 21 21 22 23 27 28 29 28 32 37 35 35 36 39 41 43 43 42 42 44 47 48 51 51 55 58 59 60 63 64 65 67 69 72 74 77
32 30 27 22 24 27 26 29 26 27 31 28 26 26 32 34 30 30 31 30 29 31 33 35 36 36 40 43 46 48 46 46 49 52 51 51 55 58 62 64 61 67 68 71 71 72 76 79 82
29 26 28 25 24 23 28 32 33 31 32 32 32 32 33 32 34 35 36 37 37 39 39 40 40 40 42 46 49 51 52 50 52 55 55 58 59 61 67 69 69 71 75 76 78 80 82 84 87
28 33 31 30 28 25 25 27 36 37 35 34 35 35 35 36 37 39 41 44 44 45 44 46 48 48 48 49 51 55 57 56 58 58 58 62 64 70 73 75 74 76 80 82 82 84 85 89 92
32 33 33 34 34 30 34 32 41 39 36 37 38 38 41 41 41 44 43 42 42 47 50 52 52 55 56 57 58 57 60 62 62 61 63 66 68 71 74 76 78 81 84 85 85 86 90 91 95
38 37 37 36 34 34 36 35 38 43 42 44 43 43 44 43 43 42 43 45 51 49 48 49 50 51 51 53 56 59 61 60 62 64 67 69 71 74 76 79 81 83 85 88 90 93 95 98 101
39 42 41 36 36 32 39 36 29 44 46 48 48 48 48 47 48 49 50 51 52 52 54 54 55 57 58 59 60 64 65 66 66 68 72 75 77 80 85 86 89 90 90 92 94 96 98 101 104
43 43 44 39 39 37 39 34 35 42 50 53 55 56 56 55 54 52 51 52 56 57 58 60 62 64 65 66 68 69 70 72 75 75 80 81 83 87 89 90 92 94 95 97 100 102 102 105 109
53 53 52 49 45 41 43 36 39 46 52 56 59 61 63 64 64 63 60 61 62 65 67 67 69 71 71 72 73 74 77 78 78 80 82 87 89 90 90 94 96 98 100 103 104 105 109 112 112
59 60 64 60 54 53 50 48 48 53 55 57 64 68 68 68 69 70 71 73 72 73 75 75 76 77 76 77 77 77 78 79 82 84 86 89 90 91 94 97 99 101 105 107 109 112 114 116 118
69 67 68 70 68 61 57 57 57 60 62 65 71 73 76 76 75 74 73 75 77 79 78 78 78 79 80 80 81 82 84 85 88 90 92 95 95 97 98 99 103 107 110 113 115 114 114 120 120
73 72 75 78 75 74 65 61 61 63 67 71 74 77 79 79 81 82 81 80 82 82 81 83 84 81 82 84 89 91 92 93 94 95 98 98 101 103 104 105 108 111 115 117 119 119 119 116 109
79 79 79 78 79 82 84 66 70 71 75 80 80 80 82 81 80 83 85 85 83 84 87 89 89 89 91 92 95 98 99 99 100 101 103 104 106 108 109 111 115 118 121 121 124 124 116 115 100

GFSSGP_250_spd_267.txt.gz
Wind_Speed
21 18 23 26 30 31 32 32 30 31 30 26 23 19 19 14 11 9 8 3 3 9 14 18 17 15 14 13 14 15 14 11 11 10 15 25 34 38 44 50 54 49 46 55 57 55 54 54 53
15 14 15 21 28 29 30 28 27 27 25 23 20 22 21 18 18 12 11 9 5 5 8 14 18 22 23 22 19 21 18 17 17 17 14 13 17 29 38 41 44 44 42 40 51 58 58 58 56
13 9 13 20 25 25 25 24 23 23 21 18 21 22 17 15 14 18 15 10 13 9 10 12 17 23 21 20 21 20 16 17 18 16 14 13 11 8 17 28 33 36 39 38 37 45 53 54 60
15 8 9 20 21 21 18 17 18 20 19 17 17 16 12 7 6 2 6 13 16 15 19 19 15 15 14 16 19 16 14 11 14 14 13 12 11 10 6 8 19 27 30 28 32 37 43 52 54
14 10 7 13 16 14 15 14 17 17 15 13 10 7 7 7 6 9 14 11 14 19 21 17 15 14 14 18 24 20 16 10 9 15 16 10 11 10 11 7 5 13 20 22 26 26 29 35 44
7 13 10 5 10 10 14 16 15 12 13 10 8 6 3 3 5 8 6 11 15 19 24 16 17 18 13 13 21 23 21 20 19 13 17 18 15 11 13 7 5 5 8 16 20 23 28 29 29
7 6 10 9 7 8 7 7 8 5 7 8 9 6 5 2 3 5 2 4 11 16 17 16 21 20 18 15 10 16 25 17 25 15 19 16 22 24 21 24 13 7 5 8 14 18 21 23 29
8 10 8 10 7 4 3 4 0 2 5 7 10 9 9 7 7 6 5 3 10 11 10 12 16 18 13 12 17 12 20 22 15 22 15 20 15 16 18 15 20 20 19 16 14 10 13 17 21
10 7 10 11 12 11 9 7 6 4 5 7 9 10 14 14 11 12 8 3 5 6 10 8 14 14 19 17 18 15 4 15 16 9 11 19 19 9 10 16 8 16 13 11 14 14 7 9 10
13 12 10 13 11 11 12 15 14 12 13 10 12 14 14 18 14 13 13 6 6 7 8 12 14 15 13 16 20 20 22 12 10 11 22 16 22 21 15 13 17 15 9 7 8 14 14 13 18
15 15 13 12 15 14 12 11 14 15 15 15 14 15 18 19 20 17 12 9 6 7 8 10 11 12 14 18 20 21 21 18 16 22 19 22 26 25 23 24 25 23 29 25 18 20 18 22 17
17 16 13 14 15 18 18 17 15 16 18 20 20 21 22 22 20 20 14 14 11 13 11 12 9 12 17 20 20 21 21 22 23 23 24 23 24 26 26 29 30 32 31 30 27 28 27 29 27
19 19 17 13 13 14 17 17 19 19 18 19 19 21 22 22 21 19 15 11 11 11 8 7 11 17 20 20 21 22 23 24 23 26 26 27 28 29 31 32 36 34 32 34 36 35 37 34 37
23 21 18 14 12 10 10 11 13 11 12 13 15 18 22 23 22 20 17 13 11 8 10 8 14 18 20 21 23 26 25 25 26 28 28 31 31 29 30 32 37 36 36 39 40 41 42 45 46
24 22 19 18 15 14 13 12 11 12 12 14 16 16 17 18 18 18 15 11 12 12 13 14 17 21 23 22 23 24 26 28 30 30 32 32 33 32 33 35 38 40 41 46 44 47 50 52 51
26 23 17 17 20 19 19 18 17 14 11 12 12 13 13 13 12 10 12 19 19 20 20 19 19 24 25 25 28 29 29 30 30 30 32 34 35 34 37 39 42 44 48 50 51 52 53 54 55
26 27 23 18 19 22 22 23 21 19 19 19 16 14 15 14 15 19 18 20 22 25 28 29 27 27 28 30 31 33 35 35 35 36 35 35 36 37 39 44 46 47 51 53 52 53 55 57 58
27 27 28 29 25 25 24 26 26 25 25 24 22 22 23 22 24 25 25 27 27 29 29 29 30 31 34 36 38 42 43 41 42 39 41 41 42 43 44 48 49 50 51 55 57 58 59 60 62
23 26 28 29 29 26 26 26 24 26 29 29 29 28 29 29 25 28 29 31 32 35 36 38 39 40 41 42 43 46 48 50 49 47 46 45 45 46 49 52 54 56 57 61 64 65 67 68 68
24 25 22 25 28 29 29 27 27 23 29 32 35 35 33 33 32 31 32 33 32 33 35 37 36 39 40 41 42 42 44 45 49 49 51 52 53 53 54 55 58 60 64 66 68 70 71 72 74
26 30 30 28 30 32 29 29 30 31 30 30 33 35 38 39 39 38 39 38 37 37 38 38 40 40 41 43 45 46 49 52 52 54 56 59 60 59 62 62 64 68 70 73 74 74 74 78 79
30 29 30 33 27 30 29 31 37 37 36 35 35 36 39 39 39 39 41 40 39 39 41 42 43 43 43 46 49 51 54 56 58 60 62 64 66 66 67 68 70 74 75 77 77 77 79 82 82
31 32 32 28 27 30 33 28 39 40 42 42 40 40 40 40 41 43 44 43 43 44 46 46 46 48 50 51 55 57 58 61 63 64 64 65 68 69 70 73 74 76 77 81 82 84 87 88 90
38 40 32 34 32 31 40 31 31 42 45 48 49 48 47 47 47 47 47 48 50 51 52 54 53 55 57 60 61 64 65 66 67 68 68 70 70 71 74 76 79 81 83 86 89 91 93 93 95
43 45 46 38 42 35 40 39 41 48 50 52 54 54 55 56 55 55 56 57 59 61 61 61 61 63 65 67 68 70 68 67 69 71 73 75 75 78 80 82 84 86 89 91 93 95 96 98 100
51 51 54 46 49 45 47 41 48 53 55 57 61 62 65 65 64 66 66 67 68 68 70 70 72 73 73 74 74 72 70 71 74 74 76 79 82 85 87 88 90 92 94 93 97 98 101 102 105
59 62 62 60 56 52 51 54 53 57 60 64 66 67 70 72 72 73 72 72 72 73 75 76 78 78 78 78 77 74 75 78 79 79 80 82 85 88 90 91 97 98 97 99 103 102 106 108 109
68 67 65 69 66 61 58 56 59 62 65 68 71 72 72 73 75 78 77 76 78 79 80 80 81 82 81 80 78 78 81 83 83 83 86 88 90 92 94 99 100 102 104 105 106 108 110 112 113
74 73 75 80 76 73 66 62 65 64 67 71 75 75 77 78 79 80 84 84 82 83 83 83 82 82 82 81 82 85 87 87 88 89 89 94 96 98 99 101 105 107 109 111 113 114 114 114 115
78 79 83 85 84 85 78 59 71 75 75 78 80 79 78 76 76 76 80 82 85 84 85 84 83 85 85 86 87 91 90 92 95 96 97 97 100 101 104 108 110 112 113 116 117 117 117 119 120

GFSSGP_250_spd_270.txt.gz
Wind_Speed
21 20 21 26 28 29 33 35 31 29 24 24 23 20 16 14 12 8 5 4 8 10 12 13 13 12 13 9 9 10 10 5 9 9 13 15 22 36 49 58 61 58 55 56 53 50 49 54 55
18 15 16 18 21 25 26 28 29 26 23 24 23 22 20 16 10 12 11 3 7 8 13 15 15 16 16 10 9 9 10 10 10 11 11 11 14 18 27 39 49 47 49 47 50 50 50 53 57
16 12 10 16 19 21 22 23 23 23 24 25 22 18 14 13 17 10 8 7 7 6 13 19 15 16 13 12 12 14 12 12 12 12 13 14 15 12 15 21 27 32 35 36 41 47 45 41 47
16 9 9 12 15 17 17 19 18 18 20 20 17 13 13 5 6 6 6 9 9 11 16 15 13 14 18 14 10 10 8 11 6 7 9 10 11 10 6 4 11 17 25 30 34 35 38 39 37
13 11 5 8 11 13 16 16 16 14 14 13 10 7 4 2 4 9 9 12 12 18 14 11 9 12 14 17 13 14 13 9 7 9 8 8 11 13 14 10 6 6 13 17 20 23 27 29 31
8 8 10 5 8 10 13 13 12 10 7 7 6 6 5 5 6 4 5 9 9 17 17 15 15 8 6 11 14 12 11 11 10 12 12 14 13 15 18 18 9 4 3 8 13 18 21 24 26
4 7 5 4 2 4 7 7 7 7 6 6 4 5 2 4 4 5 6 2 7 9 8 7 12 12 7 3 3 12 11 15 8 15 9 12 17 9 14 17 16 13 6 4 6 9 15 20 21
9 7 10 7 3 2 3 3 2 3 5 3 6 9 8 9 9 6 1 3 8 5 4 4 8 14 17 10 4 2 9 8 11 6 14 8 12 12 10 13 12 12 7 8 4 4 10 13 17
12 10 8 11 12 10 10 9 10 9 6 8 9 11 11 12 11 12 6 6 6 5 1 2 8 11 9 11 11 13 2 7 3 4 3 13 5 5 6 5 6 10 9 5 4 6 7 10 16
13 14 13 11 13 14 14 14 15 15 14 15 13 11 11 12 14 14 13 8 10 9 9 6 6 9 7 9 12 12 12 7 9 9 5 4 9 10 6 12 11 6 13 7 9 13 15 14 15
14 15 14 14 13 16 18 16 17 19 20 18 17 18 19 20 19 18 16 15 13 15 13 8 6 7 10 15 17 16 15 13 14 14 16 16 13 10 10 10 16 16 13 16 19 20 19 19 19
17 18 18 15 13 12 16 20 20 20 20 20 21 23 24 23 26 25 21 18 18 17 20 12 6 7 14 16 16 16 17 17 19 19 19 19 17 16 16 14 17 18 20 20 25 25 27 28 27
19 19 20 19 13 11 9 10 13 18 19 21 22 22 22 21 22 22 21 19 15 15 13 11 10 9 11 16 18 17 17 16 18 20 19 18 19 19 20 21 22 25 27 25 28 31 33 30 33
20 20 22 21 17 13 11 11 10 11 11 15 14 16 19 16 16 17 18 17 14 13 13 13 10 14 14 16 19 20 21 20 22 23 22 21 22 23 23 25 26 27 29 32 31 32 34 35 35
21 21 22 20 16 15 16 15 15 14 13 9 8 11 12 12 11 9 9 12 9 12 13 15 15 16 16 17 20 22 24 26 26 27 30 29 26 28 27 29 30 31 34 35 36 37 41 42 42
25 21 21 22 19 16 17 18 20 16 17 14 9 10 12 10 10 11 12 9 14 16 19 18 20 20 22 23 24 26 27 31 32 34 37 38 36 33 32 34 35 38 40 42 43 44 46 48 51
26 25 21 25 24 21 18 22 22 22 22 21 20 20 18 16 15 17 17 17 21 22 23 25 26 28 29 29 31 31 30 33 37 38 38 36 36 37 39 41 43 44 45 47 48 50 52 55 56
26 25 20 23 25 26 28 29 26 23 26 25 25 25 26 25 22 25 23 23 26 26 28 30 30 30 32 34 32 34 31 32 34 36 39 42 42 43 44 45 48 49 50 52 54 56 59 61 63
26 25 19 19 24 24 28 32 27 25 28 27 25 24 28 30 29 31 30 29 30 30 31 31 32 32 31 30 35 33 35 37 39 42 43 45 47 49 52 52 54 56 57 58 59 61 63 66 67
27 24 21 16 20 24 27 30 33 29 30 29 29 28 27 29 30 33 36 35 32 32 32 34 33 34 35 35 37 37 38 40 42 45 49 50 52 54 55 56 57 60 63 63 64 66 67 69 72
25 24 21 22 23 26 30 33 35 34 33 34 36 34 34 33 33 33 36 39 38 38 39 39 40 40 41 43 43 45 46 46 49 53 54 57 59 60 60 60 63 66 67 67 66 70 72 74 76
28 27 25 24 22 26 30 36 40 36 36 37 36 39 40 37 38 38 37 37 38 39 42 42 44 46 47 49 50 51 53 55 59 62 63 64 65 63 62 63 69 70 71 71 73 77 78 80 80
30 29 30 31 28 28 32 32 46 42 43 40 39 42 44 44 43 44 44 45 44 46 47 48 49 52 54 55 56 57 59 60 63 65 66 68 68 66 66 72 75 72 71 73 76 79 82 84 87
36 36 34 36 34 29 38 33 40 43 46 48 48 49 50 49 49 50 49 51 51 52 53 55 57 59 60 59 60 63 64 64 67 69 70 70 70 69 73 77 76 73 75 78 79 83 86 88 91
43 44 44 42 39 38 43 36 43 50 53 54 56 54 55 57 58 58 58 59 58 59 59 60 62 64 66 65 66 68 68 69 69 71 71 72 72 75 77 77 76 78 79 80 85 87 90 93 96
53 53 53 44 49 44 45 45 51 54 55 59 61 63 63 63 64 64 65 65 66 67 67 68 68 66 67 72 74 73 73 73 72 71 74 76 76 76 78 80 79 81 84 85 89 93 97 100 102
62 62 63 60 53 50 53 53 54 59 63 65 67 68 71 72 71 72 72 72 73 75 74 75 75 74 73 76 77 78 79 79 77 77 77 77 78 80 82 83 84 85 88 91 95 98 103 106 108
65 64 64 66 64 60 57 60 62 62 63 64 66 68 71 74 76 76 76 76 78 80 81 81 80 80 80 81 83 84 86 83 84 83 83 83 86 87 89 89 89 90 93 96 99 103 107 110 111
69 67 69 72 68 66 64 67 69 68 68 68 73 76 78 79 80 81 81 81 80 82 87 87 87 85 84 84 86 89 88 89 90 91 91 91 92 93 96 95 94 97 100 104 108 109 110 113 114
76 75 77 79 77 73 70 66 75 73 74 76 75 77 79 83 82 80 78 82 84 83 83 87 90 89 88 87 89 91 92 93 92 93 95 95 96 97 100 98 101 105 108 111 112 113 116 118 122